Regional Weather Roundup
Issued by NWS

Home | Current Version | Previous Version | Text Only | Print | Product List | Glossary On
Versions: 1 2 3 4 5 6 7 8 9 10 11 12 13 14 15 16 17 18 19 20 21 22 23 24 25 26 27 28 29 30 31 32 33 34 35 36 37 38 39 40 41 42 43 44 45 46 47 48 49 50
000
ASHW40 PHFO 240112
RWRHI

WEATHER ROUNDUP FOR HAWAII
NATIONAL WEATHER SERVICE HONOLULU HI
300 PM HST MON JAN 23 2017

THIS IS AN AUTOMATED REPORT THAT HAS NOT BEEN QUALITY CONTROLLED.

NOTE..."FAIR" INDICATES FEW OR NO CLOUDS BELOW 12,000 FEET WITH NO
SIGNIFICANT WEATHER AND/OR OBSTRUCTIONS TO VISIBILITY.

* - THESE SITES REPORT LIMITED FIELDS

HIZ001>004-240200-
KAUAI-NIIHAU-

CITY           SKY/WX    TMP DP  RH WIND       PRES   REMARKS
LIHUE APT      PTSUNNY   79  66  64 E15       30.13F
PORT ALLEN*      N/A     79 N/A N/A NE17G24     N/A
POIPU*           N/A     79 N/A N/A E8G16       N/A
PRINCEVILLE*     N/A     72 N/A N/A SE6G13      N/A
KOKOLE POINT*  NOT AVBL
MOLOAA DAIRY*    N/A     73  64  73 E8G16       N/A
WAIMEA HTS*    NOT AVBL
PUU OPAE*      NOT AVBL
PUU LUA*       NOT AVBL
MAKAHA RIDGE*  NOT AVBL
$$

HIZ005>011-240200-
OAHU-

CITY           SKY/WX    TMP DP  RH WIND       PRES   REMARKS
HONOLULU       PTSUNNY   80  65  59 NE16      30.10F
KALAELOA       PTSUNNY   85  67  54 VRB7      30.11F
KANEOHE MCB    NOT AVBL
WHEELER FIELD  PTSUNNY   76  66  70 E13       30.11F
BELLOWS*       NOT AVBL
KAHUKU*        NOT AVBL
WHEELER*       NOT AVBL
WAIANAE HARBOR NOT AVBL
DILLINGHAM*      N/A     82  68  61 MISG        N/A
KAHUKU TRN*      N/A     73  68  83 W8G18       N/A
KAWAILOA*        N/A     72  66  83 E12G24      N/A
KII*             N/A     75  68  78 E17         N/A
MAKUA RANGE*     N/A     82  68  61 E3G9        N/A
OAHU FOREST NW NOT AVBL
SCHOFIELD BRK*   N/A     77  68  73 MISG        N/A
SCHOFIELD S*   NOT AVBL
WAIANAE VLY*   NOT AVBL
KUAOKALA*      NOT AVBL
HONOULIUULI*   NOT AVBL
MOKUOLOE IS*   NOT AVBL
PALEHUA*       NOT AVBL
WAIAWA PHB*    NOT AVBL
$$

HIZ012>013-240200-
MOLOKAI-

CITY           SKY/WX    TMP DP  RH WIND       PRES   REMARKS
MOLOKAI AIRPT  MOSUNNY   77  66  68 NE12      30.10F
KALAUPAPA      NOT AVBL
MAKAPULAPAI*   NOT AVBL
MOLOKAI 1*     NOT AVBL
PUU ALII*      NOT AVBL
$$

HIZ016-240200-
KAHOOLAWE-

CITY           SKY/WX    TMP DP  RH WIND       PRES   REMARKS
KAHOOLAWE*     NOT AVBL
HAKIOAWA*      NOT AVBL
HONOKANAIA*      N/A     81  67  61 E18G31    30.04
KANELOA*         N/A     75  68  78 E24G37    30.17F
KEALIALALO*    NOT AVBL
LUA MAKIKA*    NOT AVBL
$$

HIZ014>015-240200-
LANAI-

CITY           SKY/WX    TMP DP  RH WIND       PRES   REMARKS
LANAI CITY     MOSUNNY   73  64  73 W12       30.15
LANAI 1*       NOT AVBL
$$

HIZ017>028-240200-
MAUI-

CITY           SKY/WX    TMP DP  RH WIND       PRES   REMARKS
KAHULUI        MOSUNNY   80  66  62 E20G30    30.09F
KAPALUA-W MAUI MOSUNNY   77  64  65 E16G28    30.10
HANA AIRPORT   PTSUNNY   73  68  83 E10       30.15S
HANA*            N/A     73 N/A N/A E9G17       N/A
HALEAKALA SUMM   N/A     50  32  50 W5          N/A
MAALAEA BAY*   NOT AVBL
HALEAKALA*     NOT AVBL
KAUPO GAP*     NOT AVBL
KULA 1*          N/A     64  53  68 W5G10       N/A
$$

HIZ023>026-240200-
BIG ISLAND OF HAWAII COAST AND LOWER SLOPES-

CITY           SKY/WX    TMP DP  RH WIND       PRES   REMARKS
KAILUA KONA    MOSUNNY   81  67  62 SW12      30.06F
HILO           LGT RAIN  73  68  84 E13G22    30.12F
HONOKAA*         N/A     70 N/A N/A VRB1        N/A
KAWAIHAE MWT*  NOT AVBL
KAWAIHAE*      NOT AVBL
SOUTH POINT*     N/A     70 N/A N/A N16G24      N/A
UPOLU AIRPORT* NOT AVBL
KAMUELA*       CLEAR     75  57  53 SW7       30.18F
HAKALAU*         N/A     56  55  95 E8          N/A
KALOKO-HONOKO* NOT AVBL
PALI 2*          N/A     66  61  82 W12G18      N/A
KEALAKOMO*       N/A     79  68  69 NE18G24     N/A
KAUPULEHU*     NOT AVBL
KAPAPALA*      NOT AVBL
LOWER KAHUKU*  NOT AVBL
PUHE CS*       NOT AVBL
PUHO CS*       NOT AVBL
PTA KEAMUKU*     N/A     70  57  64 CALM        N/A
WAIKOLOA*      NOT AVBL
$$

HIZ027>028-240200-
BIG ISLAND OF HAWAII INTERIOR AND SUMMMITS-

CITY           SKY/WX    TMP DP  RH WIND       PRES   REMARKS
BRADSHAW FIELD CLOUDY    63  48  59 W3        30.37F
MK VISITOR CEN   N/A     50  39  66 S7          N/A
MAUNA KEA*       N/A     34  28  80 SW2G14      N/A
MAUNA LOA*     NOT AVBL
MAUNA LOA 1*   NOT AVBL
PTA KIPUKA*      N/A     68  52  56 NW5G14      N/A
PTA RANGE 17*    N/A     64  45  48 W7G15       N/A
PTA WEST*        N/A     70  52  52 NW7G14      N/A
NENE CABIN*    NOT AVBL
AHUMOA*        NOT AVBL
PTA PORTABLE*  NOT AVBL
PUU MALI*        N/A     54 N/A N/A W5G12       N/A
$$

HIC003-240200-
NORTHWEST ISLANDS-

CITY           SKY/WX    TMP DP  RH WIND       PRES   REMARKS
MIDWAY ISLAND  NOT AVBL
MIDWAY NOS*    NOT AVBL
FRENCH FRIGATE NOT AVBL
$$

PHZ110>124-180-240200-
BUOY REPORTS

STATION/POSITION TIME  TEMP    WIND        PRES    WAVE   SWELL
                       AIR SEA DIR/SP/G            HT/PER HT/DIR
                 (UTC) (F)     (DEG/KT/KT) (MB)    (FT/S) (FT/D)
BUOY 51001       0050   73 74   90/ 12/ 16 1021.0F   9/10   8/100
BUOY 51101       0050   74 75   80/ 10/ 12 1021.6F   9/ 9   8/ 80
BUOY 51100       NOT AVBL
BUOY 51002       0050   76 77   60/ 19/ 23 1016.5F  12/10   8/ 70
BUOY 51003       0050   76 78   60/ 14/ 16 1018.4F   9/10   8/ 90
BUOY 51004       2350      77   80/ 19/ 23 1017.3   12/10  11/ 50
BARBERS PT BUOY  NOT AVBL
WAIMEA BAY BUOY  0002      74                N/A     6/10   3/350
KAILUA BAY BUOY  0034      76                N/A     9/10   3/ 40
LANAI BUOY       0045      78                N/A     2/15   2/210
BARBERS PT 2     0039      77                N/A     5/10   2/270
PAUWELA MAUI     0039      75                N/A    10/ 9   3/ 50
HILO             0042      76                N/A    11/11   7/ 60
KANEOHE BAY BUOY 0036      75                N/A     9/11   5/ 40
HANALEI KAUAI    0052      77                N/A     9/10   3/ 30
KAHULUI HARBOR   0036   76 74   60/ 11/ 24 1018.9F
HONOLULU HARBOR  0036   76 76  110/  6/ 12 1020.3F
KILO NALU        NOT AVBL
HILO HARBOR      0036   78 74  110/  9/ 13 1019.5F
MOKUOLOE         0036   75 73  100/ 12/ 18 1020.0F
NAWILIWILI       0048   75      80/ 14/ 17 1020.1F
WHOTS BUOY       NOT AVBL
BUOY 51028       NOT AVBL
$$

......................KEY........................................
  SKY/WX - SKY CONDITIONS/PRESENT WEATHER
  TMP    - TEMPERATURE IN FAHRENHEIT
  DWPT   - DEWPOINT IN FAHRENHEIT
  RH     - RELATIVE HUMIDITY IN PERCENT
  WIND   - DIRECTION AND SPEED /MPH FOR ISLANDS...KTS FOR BUOYS/
  PRES   - MEAN SEA LEVEL PRESSURE IN INCHES OF HG
  VSB    - VISIBILITY IN MILES
  HX     - HEAT INDEX
  WCI    - WIND CHILL INDEX
  VRB    - VARIABLE WIND DIRECTION
  N/A    - NOT AVAILABLE



USA.gov is the U.S. government's official web portal to all federal, state and local government web resources and services.